| time (UTC) | temp C | wind direction | speed KPH | gust KPH | rain 1hr cm | rain 24hr cm | rain mn cm | humidity % | barometer mb |
| 20260507001546 | 10 | 256 | 0.0 | 6.4 | 0.00 | 0.00 | 0.00 | 49 | 1012.7 |
| 20260507000047 | 10 | 0 | 0.0 | 11.3 | 0.00 | 0.00 | 0.00 | 49 | 1012.7 |
| 20260506234616 | 10 | 308 | 3.2 | 14.5 | 0.00 | 0.00 | 0.00 | 49 | 1012.7 |
| 20260506233042 | 10 | 317 | 3.2 | 19.3 | 0.00 | 0.00 | 0.00 | 49 | 1012.5 |
| 20260506231555 | 10 | 334 | 1.6 | 16.1 | 0.00 | 0.00 | 0.00 | 50 | 1012.4 |
| 20260506230050 | 11 | 311 | 4.8 | 12.9 | 0.00 | 0.00 | 0.00 | 50 | 1012.3 |
| 20260506224548 | 11 | 334 | 6.4 | 14.5 | 0.00 | 0.00 | 0.00 | 49 | 1012.3 |
| 20260506223050 | 11 | 0 | 3.2 | 14.5 | 0.00 | 0.00 | 0.00 | 49 | 1012.2 |
| 20260506221545 | 11 | 236 | 4.8 | 16.1 | 0.00 | 0.00 | 0.00 | 47 | 1012.3 |
| 20260506220046 | 11 | 342 | 4.8 | 17.7 | 0.00 | 0.00 | 0.00 | 48 | 1012.3 |
| 20260506214549 | 11 | 301 | 4.8 | 17.7 | 0.00 | 0.10 | 0.00 | 47 | 1012.2 |
| 20260506213046 | 11 | 271 | 4.8 | 20.9 | 0.00 | 0.10 | 0.00 | 49 | 1012.2 |
| 20260506211549 | 11 | 269 | 4.8 | 16.1 | 0.00 | 0.10 | 0.00 | 50 | 1012.2 |
| 20260506210046 | 10 | 330 | 1.6 | 14.5 | 0.00 | 0.10 | 0.00 | 49 | 1012.3 |
| 20260506204553 | 11 | 307 | 3.2 | 14.5 | 0.00 | 0.13 | 0.00 | 48 | 1012.2 |
| 20260506203047 | 11 | 288 | 6.4 | 24.1 | 0.00 | 0.13 | 0.00 | 50 | 1012.2 |
| 20260506201547 | 11 | 317 | 4.8 | 17.7 | 0.00 | 0.13 | 0.00 | 49 | 1012.2 |
| 20260506200105 | 11 | 311 | 6.4 | 19.3 | 0.00 | 0.13 | 0.00 | 48 | 1012.3 |
| 20260506194550 | 10 | 251 | 6.4 | 19.3 | 0.00 | 0.13 | 0.00 | 49 | 1012.6 |
| 20260506193043 | 11 | 345 | 8.0 | 19.3 | 0.00 | 0.13 | 0.00 | 48 | 1012.6 |
| 20260506191545 | 10 | 291 | 1.6 | 17.7 | 0.00 | 0.13 | 0.00 | 52 | 1012.7 |
| 20260506190053 | 10 | 355 | 6.4 | 19.3 | 0.00 | 0.13 | 0.00 | 49 | 1012.9 |
| 20260506184549 | 10 | 329 | 9.7 | 17.7 | 0.00 | 0.13 | 0.00 | 50 | 1012.9 |
| 20260506183103 | 10 | 259 | 6.4 | 30.6 | 0.00 | 0.13 | 0.00 | 52 | 1012.6 |
| 20260506181559 | 10 | 333 | 8.0 | 20.9 | 0.00 | 0.13 | 0.00 | 50 | 1012.5 |
| 20260506180056 | 10 | 342 | 14.5 | 22.5 | 0.00 | 0.13 | 0.00 | 52 | 1012.7 |
| 20260506174550 | 10 | 284 | 11.3 | 20.9 | 0.00 | 0.13 | 0.00 | 52 | 1012.8 |
| 20260506173055 | 9 | 285 | 8.0 | 17.7 | 0.00 | 0.13 | 0.00 | 56 | 1013.1 |
| 20260506171548 | 9 | 355 | 9.7 | 20.9 | 0.00 | 0.13 | 0.00 | 58 | 1013.2 |
| 20260506170054 | 8 | 319 | 12.9 | 22.5 | 0.00 | 0.13 | 0.00 | 57 | 1013.1 |
| 20260506164555 | 9 | 291 | 8.0 | 20.9 | 0.00 | 0.20 | 0.00 | 57 | 1013.0 |
| 20260506163054 | 8 | 286 | 9.7 | 24.1 | 0.00 | 0.20 | 0.00 | 58 | 1013.0 |
| 20260506161557 | 8 | 298 | 16.1 | 29.0 | 0.00 | 0.20 | 0.00 | 56 | 1012.8 |
| 20260506160049 | 8 | 323 | 14.5 | 35.4 | 0.00 | 0.20 | 0.00 | 57 | 1013.0 |
| 20260506154555 | 8 | 346 | 16.1 | 27.4 | 0.00 | 0.28 | 0.00 | 61 | 1012.9 |
| 20260506153047 | 8 | 355 | 16.1 | 27.4 | 0.00 | 0.28 | 0.00 | 61 | 1012.7 |
| 20260506151605 | 9 | 13 | 11.3 | 25.7 | 0.00 | 0.28 | 0.00 | 60 | 1012.5 |
| 20260506150051 | 8 | 277 | 16.1 | 27.4 | 0.00 | 0.28 | 0.00 | 57 | 1012.5 |
| 20260506144545 | 8 | 260 | 8.0 | 24.1 | 0.00 | 0.28 | 0.00 | 56 | 1012.3 |
| 20260506143051 | 9 | 320 | 11.3 | 22.5 | 0.00 | 0.28 | 0.00 | 58 | 1012.3 |
| 20260506141544 | 9 | 325 | 9.7 | 19.3 | 0.00 | 0.28 | 0.00 | 58 | 1012.0 |
| 20260506140051 | 8 | 336 | 3.2 | 17.7 | 0.00 | 0.28 | 0.00 | 60 | 1011.9 |
| 20260506134545 | 8 | 342 | 11.3 | 24.1 | 0.00 | 0.28 | 0.00 | 60 | 1011.6 |
| 20260506133052 | 8 | 339 | 12.9 | 22.5 | 0.00 | 0.28 | 0.00 | 58 | 1011.7 |
| 20260506131552 | 8 | 319 | 6.4 | 17.7 | 0.00 | 0.28 | 0.00 | 61 | 1011.4 |
| 20260506130057 | 7 | 298 | 3.2 | 14.5 | 0.00 | 0.28 | 0.00 | 63 | 1011.3 |
| 20260506124544 | 7 | 280 | 4.8 | 19.3 | 0.00 | 0.28 | 0.00 | 62 | 1011.1 |
| 20260506123046 | 7 | 10 | 6.4 | 19.3 | 0.00 | 0.28 | 0.00 | 64 | 1010.9 |
| 20260506121543 | 6 | 342 | 4.8 | 17.7 | 0.00 | 0.28 | 0.00 | 67 | 1010.8 |
| 20260506120047 | 6 | 302 | 6.4 | 12.9 | 0.00 | 0.28 | 0.00 | 67 | 1010.7 |
| 20260506114546 | 5 | 304 | 4.8 | 9.7 | 0.00 | 0.28 | 0.00 | 68 | 1010.6 |
| 20260506113047 | 5 | 304 | 3.2 | 11.3 | 0.00 | 0.28 | 0.00 | 70 | 1010.5 |
| 20260506111546 | 5 | 304 | 4.8 | 11.3 | 0.00 | 0.28 | 0.00 | 69 | 1010.1 |
| 20260506110056 | 5 | 314 | 4.8 | 11.3 | 0.00 | 0.28 | 0.00 | 68 | 1010.1 |
| 20260506104558 | 5 | 301 | 3.2 | 9.7 | 0.00 | 0.28 | 0.00 | 67 | 1009.8 |
| 20260506103048 | 6 | 306 | 4.8 | 11.3 | 0.00 | 0.28 | 0.00 | 66 | 1009.7 |
| 20260506101554 | 6 | 294 | 3.2 | 11.3 | 0.00 | 0.28 | 0.00 | 65 | 1009.5 |
| 20260506100047 | 6 | 332 | 3.2 | 14.5 | 0.00 | 0.28 | 0.00 | 65 | 1009.7 |
| 20260506094554 | 6 | 340 | 6.4 | 14.5 | 0.00 | 0.28 | 0.00 | 63 | 1009.5 |
| 20260506093055 | 6 | 309 | 4.8 | 11.3 | 0.00 | 0.28 | 0.00 | 65 | 1009.2 |
| 20260506091548 | 6 | 320 | 4.8 | 14.5 | 0.00 | 0.28 | 0.00 | 65 | 1008.9 |
| 20260506090046 | 6 | 308 | 6.4 | 16.1 | 0.00 | 0.28 | 0.00 | 64 | 1008.9 |
| 20260506084551 | 7 | 332 | 6.4 | 14.5 | 0.00 | 0.28 | 0.00 | 65 | 1009.0 |
| 20260506083047 | 7 | 294 | 4.8 | 14.5 | 0.00 | 0.28 | 0.00 | 64 | 1008.7 |
| 20260506081552 | 7 | 313 | 6.4 | 14.5 | 0.00 | 0.28 | 0.00 | 64 | 1008.9 |
| 20260506073047 | 7 | 329 | 6.4 | 17.7 | 0.00 | 0.28 | 0.00 | 64 | 1009.1 |
| 20260506071606 | 7 | 289 | 8.0 | 16.1 | 0.00 | 0.28 | 0.00 | 64 | 1008.9 |
| 20260506061549 | 7 | 310 | 4.8 | 11.3 | 0.00 | 0.28 | 0.00 | 63 | 1009.1 |
| 20260506044555 | 8 | 318 | 4.8 | 12.9 | 0.00 | 0.51 | 0.00 | 64 | 1009.2 |
| 20260506043046 | 8 | 293 | 1.6 | 11.3 | 0.00 | 0.51 | 0.00 | 64 | 1009.1 |
| 20260506041559 | 8 | 310 | 1.6 | 14.5 | 0.00 | 0.51 | 0.00 | 63 | 1008.9 |
| 20260506040053 | 8 | 334 | 4.8 | 11.3 | 0.00 | 0.51 | 0.00 | 64 | 1009.0 |
| 20260506034547 | 8 | 0 | 3.2 | 12.9 | 0.00 | 0.53 | 0.51 | 63 | 1008.9 |
| 20260506033046 | 8 | 318 | 4.8 | 11.3 | 0.00 | 0.53 | 0.51 | 62 | 1008.8 |
| 20260506031547 | 8 | 0 | 4.8 | 11.3 | 0.00 | 0.53 | 0.51 | 61 | 1008.9 |
| 20260506030048 | 8 | 304 | 1.6 | 6.4 | 0.00 | 0.53 | 0.51 | 63 | 1008.9 |
| 20260506024552 | 8 | 0 | 0.0 | 6.4 | 0.00 | 0.53 | 0.51 | 60 | 1008.9 |
| 20260506023049 | 8 | 0 | 0.0 | 6.4 | 0.00 | 0.53 | 0.51 | 60 | 1009.0 |
| 20260506021553 | 8 | 300 | 3.2 | 8.0 | 0.00 | 0.53 | 0.51 | 59 | 1008.9 |
| 20260506020049 | 8 | 259 | 0.0 | 8.0 | 0.00 | 0.53 | 0.51 | 60 | 1008.8 |
| 20260506014553 | 8 | 311 | 1.6 | 11.3 | 0.00 | 0.53 | 0.51 | 59 | 1008.7 |
| 20260506013044 | 8 | 0 | 1.6 | 9.7 | 0.00 | 0.53 | 0.51 | 59 | 1008.6 |
| 20260506011543 | 9 | 0 | 1.6 | 8.0 | 0.00 | 0.53 | 0.51 | 58 | 1008.5 |
| 20260506010049 | 9 | 0 | 1.6 | 14.5 | 0.00 | 0.53 | 0.51 | 55 | 1008.3 |
| 20260506004555 | 9 | 306 | 1.6 | 12.9 | 0.00 | 0.53 | 0.51 | 55 | 1008.5 |
| 20260506003050 | 9 | 304 | 3.2 | 11.3 | 0.00 | 0.53 | 0.51 | 56 | 1008.5 |